INTELSAT 31 (IS-31)

Last updated on Nov. 14, 2019, 4:21 a.m. UTC

1 41581U 16035A   19317.02919826 -.00000137  00000-0  00000+0 0  9993
2 41581   0.0200 258.2135 0002527 316.5423 112.5958  1.00270926 12549
UTC
Height (km)
Latitude
Longitude
Inclination
Orbital Period
UTC large
Height (km)
Speed (km/s)
/
Latitude / Longitude
Inclination (degrees)
Orbital Period (minutes)
Azimuth
Elevation
Range (km)
Doppler Factor
iOS Compass Heading
iOS Angle

Next 30 passes for location: Hong Kong

Rise time Rise Azimuth (degrees) Set time Set Azimuth (degrees) Duration Max altitude (degrees)

No matching passes for this satellites